Weather in Mayguba

Russia / Republic of Karelia     63°48′11″N   34°17′58″E
temp.,
°C
wind,
m/s
gust,
m/s
humid.,
%
clouds,
%
prec.,
mm/h
press.,
hPa
HPBL,
m
3 march, wed
wed300:00−6wnw411900 0.0 1008280
03:00−6w410930 0.0 1008278
06:00−5wnw4119395 0.0 1005388
09:00−4wnw5119197 0.1 1005460
12:00−3w498592 0.0 1002521
15:00−2w478995 0.3 1000622
18:00−4wnw2297100 0.4 99745
21:00−6nnw3795100 0.6 998196
4 march, thu
thu400:00−8nnw369696 0.1 998198
03:00−11nnw359692 0.1 100095
06:00−12nw36957 0.0 1000115
09:00−12nw369535 0.0 1001153
12:00−8nw359171 0.0 1001284
15:00−7nw368983 0.0 1001388
18:00−9nw3893100 0.0 1001230
21:00−9nw369696 0.1 1002194
5 march, fri
fri500:00−10n3794100 0.1 1003307
03:00−12nnw3794100 0.1 1005214
06:00−16nnw369493 0.0 1007112
09:00−14nw359379 0.0 1008151
12:00−10wnw2489100 0.1 1009449
15:00−9wnw3688100 0.1 1009443
18:00−9wnw3894100 0.1 1009305
21:00−11nw379386 0.1 1010138
6 march, sat
sat600:00−13wnw359588 0.0 101094
03:00−14w359469 0.0 101196
06:00−15wsw35950 0.0 101096
09:00−15wsw369523 0.0 1008152
12:00−10ssw359054 0.0 1005278
15:00−8s498877 0.0 1001456
18:00−9sse4991100 0.0 996412
21:00−8sse61293100 0.6 991649
7 march, sun
sun700:00−7se61194100 0.6 987618
03:00−8ese51095100 1.5 985527
06:00−8ene71193100 1.1 984581
09:00−10ne71289100 1.3 986590
12:00−10nne81387100 0.1 990780
15:00−13nne91587100 0.2 994762
18:00−15n81687100 0.1 998717
21:00−16n71589100 0.1 1001717